TimeCDT,TemperatureF,Dew PointF,Humidity,Sea Level PressureIn,VisibilityMPH,Wind Direction,Wind SpeedMPH,Gust SpeedMPH,PrecipitationIn,Events,Conditions,WindDirDegrees,DateUTC
12:15 AM,50.7,47.7,89,29.87,7.0,SSW,6.9,-,N/A,,Clear,210,2013-04-29 05:15:00
12:35 AM,52.0,48.9,89,29.87,7.0,SW,6.9,-,N/A,,Clear,220,2013-04-29 05:35:00
12:55 AM,51.1,47.8,89,29.87,7.0,SW,6.9,-,N/A,,Clear,220,2013-04-29 05:55:00
1:15 AM,52.0,48.6,88,29.87,10.0,SW,6.9,-,N/A,,Clear,220,2013-04-29 06:15:00
1:35 AM,52.3,48.7,88,29.87,10.0,SW,6.9,-,N/A,,Clear,220,2013-04-29 06:35:00
1:55 AM,50.9,47.7,89,29.87,7.0,SW,6.9,-,N/A,,Clear,220,2013-04-29 06:55:00
2:15 AM,51.3,48.0,89,29.86,10.0,SW,8.1,-,N/A,,Clear,220,2013-04-29 07:15:00
2:35 AM,51.8,48.4,88,29.86,10.0,SW,9.2,-,N/A,,Clear,220,2013-04-29 07:35:00
2:55 AM,51.8,48.4,88,29.86,10.0,SW,10.4,-,N/A,,Clear,230,2013-04-29 07:55:00
3:15 AM,51.8,48.2,88,29.86,10.0,SW,10.4,-,N/A,,Clear,220,2013-04-29 08:15:00
3:35 AM,51.4,48.2,89,29.86,10.0,SW,10.4,-,N/A,,Clear,220,2013-04-29 08:35:00
3:55 AM,50.9,47.7,89,29.86,10.0,SW,10.4,-,N/A,,Clear,230,2013-04-29 08:55:00
4:15 AM,50.7,47.5,89,29.86,10.0,SW,9.2,-,N/A,,Clear,220,2013-04-29 09:15:00
4:35 AM,50.2,47.3,90,29.87,7.0,SW,8.1,-,N/A,,Clear,230,2013-04-29 09:35:00
4:55 AM,50.2,47.3,90,29.88,7.0,SW,8.1,-,N/A,,Clear,230,2013-04-29 09:55:00
5:15 AM,50.2,47.3,90,29.88,10.0,SW,9.2,-,N/A,,Clear,230,2013-04-29 10:15:00
5:35 AM,49.8,46.8,89,29.89,10.0,SW,9.2,-,N/A,,Clear,230,2013-04-29 10:35:00
5:55 AM,49.1,46.2,90,29.89,7.0,SW,9.2,-,N/A,,Clear,220,2013-04-29 10:55:00
6:15 AM,47.7,45.0,90,29.90,5.0,SSW,6.9,-,N/A,,Clear,210,2013-04-29 11:15:00
6:35 AM,49.5,46.6,90,29.90,7.0,SW,8.1,-,N/A,,Clear,220,2013-04-29 11:35:00
6:55 AM,50.0,47.1,90,29.91,7.0,SSW,5.8,-,N/A,,Clear,210,2013-04-29 11:55:00
7:15 AM,50.2,47.5,90,29.90,7.0,South,6.9,-,N/A,,Clear,180,2013-04-29 12:15:00
7:35 AM,51.1,48.6,91,29.91,7.0,South,8.1,-,N/A,,Clear,190,2013-04-29 12:35:00
7:55 AM,51.8,49.1,90,29.91,7.0,South,9.2,-,N/A,,Clear,170,2013-04-29 12:55:00
8:15 AM,52.7,49.6,89,29.91,7.0,South,9.2,-,N/A,,Clear,180,2013-04-29 13:15:00
8:35 AM,54.0,50.4,88,29.90,10.0,South,9.2,-,N/A,,Clear,180,2013-04-29 13:35:00
8:55 AM,55.4,51.4,87,29.90,10.0,South,9.2,-,N/A,,Clear,170,2013-04-29 13:55:00
9:15 AM,55.4,51.3,86,29.91,10.0,South,6.9,-,N/A,,Clear,180,2013-04-29 14:15:00
9:35 AM,56.1,52.0,86,29.89,10.0,South,5.8,-,N/A,,Clear,170,2013-04-29 14:35:00
9:55 AM,57.4,52.0,82,29.89,10.0,SSE,9.2,-,N/A,,Clear,160,2013-04-29 14:55:00
10:15 AM,59.7,53.1,79,29.89,10.0,South,10.4,-,N/A,,Clear,170,2013-04-29 15:15:00
10:35 AM,61.3,52.7,73,29.89,10.0,SSE,11.5,-,N/A,,Clear,160,2013-04-29 15:35:00
10:55 AM,62.8,52.5,69,29.89,10.0,South,15.0,-,N/A,,Clear,170,2013-04-29 15:55:00
11:15 AM,63.5,52.3,67,29.88,10.0,South,12.7,18.4,N/A,,Clear,170,2013-04-29 16:15:00
11:35 AM,64.9,51.3,61,29.88,10.0,South,15.0,-,N/A,,Clear,180,2013-04-29 16:35:00
11:55 AM,66.4,51.4,59,29.88,10.0,SSE,17.3,20.7,N/A,,Clear,160,2013-04-29 16:55:00
12:15 PM,68.0,50.9,54,29.87,10.0,SSE,15.0,-,N/A,,Clear,160,2013-04-29 17:15:00
12:35 PM,68.0,49.8,52,29.86,10.0,SSE,17.3,-,N/A,,Clear,160,2013-04-29 17:35:00
12:55 PM,69.8,48.2,46,29.85,10.0,South,19.6,25.3,N/A,,Clear,170,2013-04-29 17:55:00
1:15 PM,69.8,50.0,49,29.85,10.0,SSE,17.3,-,N/A,,Clear,160,2013-04-29 18:15:00
1:35 PM,68.5,48.7,49,29.84,10.0,SSE,18.4,21.9,N/A,,Clear,160,2013-04-29 18:35:00
1:55 PM,67.3,48.7,51,29.83,10.0,SSE,18.4,24.2,N/A,,Clear,160,2013-04-29 18:55:00
2:15 PM,68.9,49.8,51,29.83,10.0,SSE,20.7,24.2,N/A,,Clear,160,2013-04-29 19:15:00
2:35 PM,70.3,50.0,48,29.82,10.0,SSE,20.7,26.5,N/A,,Clear,150,2013-04-29 19:35:00
2:55 PM,69.3,49.1,49,29.82,10.0,SSE,20.7,24.2,N/A,,Scattered Clouds,160,2013-04-29 19:55:00
3:15 PM,71.1,50.4,48,29.82,10.0,SSE,18.4,25.3,N/A,,Scattered Clouds,160,2013-04-29 20:15:00
3:35 PM,69.8,50.0,49,29.81,10.0,SSE,17.3,24.2,N/A,,Scattered Clouds,160,2013-04-29 20:35:00
3:55 PM,70.3,49.6,48,29.80,10.0,SSE,19.6,25.3,N/A,,Clear,160,2013-04-29 20:55:00
4:15 PM,71.1,50.2,48,29.79,10.0,SSE,21.9,26.5,N/A,,Clear,160,2013-04-29 21:15:00
4:35 PM,70.7,50.2,48,29.78,10.0,SSE,20.7,25.3,N/A,,Clear,150,2013-04-29 21:35:00
4:55 PM,71.4,50.7,48,29.77,10.0,SSE,21.9,27.6,N/A,,Clear,150,2013-04-29 21:55:00
5:15 PM,71.2,50.5,48,29.76,10.0,SSE,23.0,26.5,N/A,,Clear,160,2013-04-29 22:15:00
5:35 PM,70.7,51.1,50,29.76,10.0,SSE,23.0,29.9,N/A,,Clear,150,2013-04-29 22:35:00
5:55 PM,70.3,52.5,53,29.76,10.0,SSE,21.9,29.9,N/A,,Clear,160,2013-04-29 22:55:00
6:15 PM,69.1,52.3,55,29.76,10.0,SSE,20.7,25.3,N/A,,Clear,160,2013-04-29 23:15:00
6:35 PM,68.5,53.1,58,29.76,10.0,SSE,19.6,26.5,N/A,,Clear,150,2013-04-29 23:35:00
6:55 PM,68.0,54.0,61,29.77,10.0,SSE,20.7,29.9,N/A,,Clear,160,2013-04-29 23:55:00
7:15 PM,66.6,54.7,66,29.77,10.0,SSE,17.3,-,N/A,,Clear,160,2013-04-30 00:15:00
7:35 PM,65.8,55.4,69,29.77,10.0,SSE,17.3,-,N/A,,Clear,160,2013-04-30 00:35:00
7:55 PM,64.8,55.4,72,29.78,10.0,South,16.1,-,N/A,,Clear,170,2013-04-30 00:55:00
8:15 PM,63.9,55.4,74,29.79,10.0,SSE,15.0,-,N/A,,Clear,160,2013-04-30 01:15:00
8:35 PM,63.5,55.4,75,29.79,10.0,SSE,15.0,-,N/A,,Clear,160,2013-04-30 01:35:00
8:55 PM,63.0,55.4,76,29.79,10.0,SSE,16.1,-,N/A,,Clear,160,2013-04-30 01:55:00
9:15 PM,62.8,55.0,76,29.79,10.0,SSE,17.3,23.0,N/A,,Clear,150,2013-04-30 02:15:00
9:35 PM,61.9,54.9,78,29.80,10.0,SSE,15.0,-,N/A,,Clear,150,2013-04-30 02:35:00
9:55 PM,61.7,55.0,79,29.79,10.0,SSE,16.1,23.0,N/A,,Clear,150,2013-04-30 02:55:00
10:15 PM,61.7,54.9,78,29.79,10.0,SSE,18.4,23.0,N/A,,Clear,150,2013-04-30 03:15:00
10:35 PM,61.7,54.7,78,29.80,10.0,SSE,16.1,21.9,N/A,,Clear,150,2013-04-30 03:35:00
10:55 PM,60.8,55.4,82,29.80,10.0,SSE,15.0,20.7,N/A,,Clear,160,2013-04-30 03:55:00
11:15 PM,61.0,54.7,80,29.79,10.0,SSE,18.4,24.2,N/A,,Clear,160,2013-04-30 04:15:00
11:35 PM,60.6,54.5,80,29.80,10.0,SSE,17.3,-,N/A,,Clear,160,2013-04-30 04:35:00
11:55 PM,60.3,54.5,81,29.79,10.0,SSE,18.4,23.0,N/A,,Clear,160,2013-04-30 04:55:00